Hourly Data Report for February 17, 2003

SHERBROOKE A
QUEBEC

45°26'00.000" N
71°41'00.000" W
241.40 m
7028124
71610
YSC

Download Data

Hourly Data (February 2003)
Hourly Data Report for February 17, 2003
TIME
LST
Temp Definition
°C
Dew Point Definition
°C
Rel Hum Definition
%
Precip. Amount Definition
mm

Wind Dir Definition
10's deg

Wind Spd Definition
km/h
Visibility Definition
km
Stn Press Definition
kPa
Hmdx Definition


Wind Chill Definition


Weather Definition


00:00 -26.4 -35.0 44   9 9 15.0 100.78   -34  
01:00 -26.8 -35.3 44   9 7 15.0 100.76   -34  
02:00 -27.0 -34.9 47   9 6 15.0 100.76   -33  
03:00 -27.2 -35.2 47   6 6 15.0 100.67   -33  
04:00 -27.3 -35.2 47   5 9 15.0 100.63   -35  
05:00 -27.2 -35.0 48   8 9 15.0 100.48   -35  
06:00 -27.0 -34.9 47   7 11 15.0 100.39   -36  
07:00 -26.4 -34.6 46   6 9 15.0 100.37   -34  
08:00 -25.2 -34.0 44   5 13 24.1 100.44   -35 Mostly Cloudy
09:00 -23.4 -33.0 41   7 11 24.1 100.40   -32 Mostly Cloudy
10:00 -20.5 -31.0 39   7 6 24.1 100.33   -26 Mostly Cloudy
11:00 -17.3 -29.5 34   10 6 24.1 100.17   -22 Mostly Cloudy
12:00 -14.8 -28.1 31   4 7 24.1 100.05   -20 Mostly Cloudy
13:00 -11.5 -25.6 30     0 24.1 99.94     Mostly Cloudy
14:00 -9.3 -23.4 31     0 24.1 99.84     Cloudy
15:00 -9.3 -23.9 29   35 6 24.1 99.78   -13 Mostly Cloudy
16:00 -8.5 -23.7 28   5 7 24.1 99.66   -12 Mostly Cloudy
17:00 -8.7 -23.3 30   6 4 24.1 99.68   -11 Cloudy
18:00 -11.3 -21.1 44   12 4 15.0 99.61   -14  
19:00 -11.7 -22.1 42   5 6 15.0 99.55   -15  
20:00 -10.8 -21.7 40   8 4 15.0 99.51   -13  
21:00 -12.0 -21.4 45   6 6 15.0 99.47   -16  
22:00 -13.2 -20.8 53   10 4 15.0 99.37   -16  
23:00 -13.5 -20.7 55   10 6 15.0 99.28   -18  

Notes on Data Quality.

Legend

  • E = Estimated
  • M = Missing
  • NA = Not Available*
  • [empty] = Indicates an unobserved value
Date modified: